Location: Provincia di Roma
(41.9667°N, 12.6667°E)
Time: 11:45:55
(UTC+00:00)

Daily predictions for brighter satellites

Satellite Brightness Start Highest point End
(mag) Time Altitude Azimuth Time Altitude Azimuth Time Altitude Azimuth
Cosmos 1697 Rocket 2.8 18:52:03 10° NNW 18:57:46 80° ENE 19:03:25 10° SSE
CENTAUR R/B 4.5 18:50:37 10° NW 18:58:18 40° WSW 19:06:24 10° S
Cosmos 1076 Rocket 4.5 18:56:14 10° SSE 18:59:56 28° E 19:03:41 10° NNE
Cosmos 1437 Rocket 3.4 18:56:13 10° NNW 19:00:03 58° W 19:03:54 10° S
USA 276 4.4 18:59:11 10° NW 19:01:35 20° N 19:03:59 10° ENE
ATLAS 3B R/B 3.4 18:55:10 10° NNW 19:01:56 45° NE 19:08:56 10° ESE
Cosmos 2279 Rocket 4.0 18:56:50 10° N 19:03:02 71° E 19:09:12 10° SSE
BREEZE M DEB (TANK) 4.1 19:01:42 10° SSE 19:03:51 17° ESE 19:08:29 10° ENE
Cosmos 773 Rocket 4.0 18:59:23 10° S 19:04:34 70° ESE 19:09:44 10° NNE
Cosmos 1833 Rocket 3.3 18:59:14 10° SW 19:04:49 63° WNW 19:10:26 10° NNE
SAR-Lupe-1 4.0 19:03:17 10° NNE 19:06:53 78° ESE 19:10:26 10° S
OBJECT-B 1.4 19:03:59 10° S 19:07:08 58° W 19:10:19 10° NNW
SAR-Lupe-4 3.5 19:04:28 10° NNE 19:08:03 70° ESE 19:11:36 10° S
Cosmos 2082 Rocket 2.2 19:05:46 10° SSW 19:11:22 73° ESE 19:17:01 10° NNE
SJ-6B 3.0 19:08:04 10° S 19:11:46 67° W 19:15:29 10° NNW
Cosmos 1842 Rocket 3.6 19:12:13 10° N 19:16:41 66° E 19:21:08 10° SSE
Resurs 1-3 3.6 19:12:47 10° SSE 19:17:08 74° ENE 19:21:32 10° N
Cosmos 2278 4.1 19:11:54 10° NNW 19:17:24 49° ENE 19:22:42 11° SE
Cosmos 1633 2.7 19:18:27 10° S 19:21:57 51° E 19:25:28 10° NNE
Cosmos 2360 Rocket 4.4 19:22:05 10° NNE 19:23:35 11° NE 19:25:06 10° ENE
Cosmos 158 Rocket 4.5 19:20:45 10° SSE 19:25:25 38° ESE 19:30:15 10° NE
Nadezhda 4 Rocket 4.0 19:24:21 10° S 19:30:23 61° E 19:36:31 10° NNE
Cosmos 1606 2.6 19:28:19 10° N 19:32:06 75° E 19:35:53 10° SSE
Cosmos 1242 Rocket 4.4 19:31:28 10° NNW 19:34:38 30° W 19:37:44 10° SSW
Landsat 7 3.9 19:32:01 11° SSE 19:36:29 60° ENE 19:41:11 10° N
GP-B 4.5 19:33:19 10° NNE 19:36:44 21° E 19:38:47 16° ESE
SPOT 3 Rocket 3.8 19:33:27 12° SSE 19:38:11 56° ENE 19:43:18 10° N
IGS 5A 3.4 19:35:48 11° SSE 19:39:43 73° ENE 19:43:52 10° N
ISS -2.7 19:37:19 10° NW 19:40:33 39° NNE 19:42:58 15° E
MetOp-B 4.3 19:40:08 14° SE 19:44:36 56° ENE 19:49:51 10° N
Cosmos 1980 Rocket 2.3 19:40:26 10° NNW 19:46:04 81° WSW 19:51:04 14° SSE
Cosmos 2369 4.2 19:40:49 10° NNW 19:46:21 59° WSW 19:51:53 10° S
CZ-2C R/B 4.0 19:44:12 10° NNE 19:48:31 43° E 19:52:04 14° SSE
RESURS DK-1 3.8 19:45:59 10° SW 19:49:55 41° WNW 19:53:53 10° NNE
Cosmos 2221 3.5 19:46:52 10° NNW 19:51:01 47° W 19:55:09 10° SSW
USA 245 4.3 19:47:53 18° SE 19:51:25 44° ENE 19:55:32 10° N
ERBS 4.0 19:49:25 10° WNW 19:52:07 24° SW 19:54:07 14° S
BREEZE-M DEB (TANK) 3.2 19:50:50 10° WSW 19:54:08 87° NNW 20:05:15 10° ENE
Meteor 2-15 4.4 19:49:54 10° N 19:55:58 69° E 20:00:51 16° SSE
Cosmos 2322 Rocket 3.4 19:51:51 10° N 19:56:41 28° NE 19:59:58 17° ESE
Cosmos 1538 Rocket 4.2 19:55:14 10° SSW 20:00:26 75° WNW 20:05:39 10° NNE
Cosmos 304 Rocket 4.0 19:56:37 10° N 20:01:19 53° ENE 20:03:54 25° SE
BREEZE-M DEB (TANK) 3.9 19:58:00 10° NW 20:01:26 72° NNE 20:09:24 16° ESE
Resurs 01 Rocket 1.9 19:58:23 12° S 20:02:22 65° WSW 20:06:49 10° NNW
Cosmos 1933 3.5 19:58:36 10° N 20:02:35 55° E 20:04:32 27° SSE
Cosmos 2151 2.9 20:00:27 10° S 20:04:40 88° E 20:08:58 10° N
Cosmos 2098 Rocket 3.5 20:03:12 10° SSW 20:06:06 42° WNW 20:09:28 10° N
ERS-2 3.7 20:03:14 10° N 20:06:36 36° WNW 20:09:57 10° SW
Meteor 2-3 Rocket 3.7 20:04:10 10° S 20:09:46 73° E 20:15:29 10° NNE
Gbstr 26 Del rocket 3.7 20:07:06 10° NW 20:10:39 39° NNE 20:12:56 20° E
JB-3 4.3 20:07:17 10° NNE 20:11:25 67° E 20:13:56 22° S
CARTOSAT-1 3.9 20:09:29 28° SE 20:11:25 50° ENE 20:15:37 10° N
Cosmos 2084 4.2 20:12:30 29° ESE 20:12:30 29° ESE 20:15:46 10° ENE
Meteor 2-15 Rocket 4.4 20:08:02 10° N 20:14:08 76° E 20:18:11 22° SSE
Ariane Rocket 4.4 20:12:16 10° SSW 20:16:51 34° W 20:21:26 10° NNW
Cosmos 2219 Rocket 4.4 20:15:44 10° NNE 20:17:38 12° NE 20:19:31 10° ENE
COSMOS 2455 4.5 20:26:04 15° E 20:26:04 15° E 20:28:29 10° ENE
SL-16 R/B 2.4 20:19:49 10° NNW 20:25:27 60° ENE 20:28:03 31° SE
ARIANE 5 R/B 2.7 20:26:51 37° SE 20:28:30 65° ENE 20:32:55 10° N
Cosmos 1782 2.8 20:25:03 10° N 20:29:02 65° E 20:30:03 46° SE
Cosmos 371 Rocket 4.2 20:25:20 10° NNW 20:29:53 43° WSW 20:32:52 20° SSW
SPOT 1/Viking Rocket 4.0 20:31:19 21° S 20:34:40 59° W 20:39:50 10° NNW
Cosmos 1271 Rocket 2.8 20:31:38 10° NNW 20:35:37 75° W 20:36:55 41° S
USA 276 2.7 20:35:12 10° NW 20:38:17 48° NNE 20:38:32 47° NE
Cosmos 1766 Rocket 3.4 20:37:42 42° SSE 20:39:04 71° E 20:43:27 10° NNE
BREEZE-M DEB (TANK) 2.9 20:35:48 10° WNW 20:39:14 85° SSW 20:43:14 29° SE
Atlas Centaur 2 3.7 20:38:47 10° SW 20:39:03 11° SW 20:39:03 11° SW
Cosmos 1151 Rocket 2.9 20:38:19 10° N 20:42:41 73° E 20:43:40 51° SSE
Cosmos 923 Rocket 4.3 20:41:31 10° SSW 20:46:49 68° WNW 20:52:10 10° NNE
Cosmos 1328 Rocket 3.6 20:42:31 10° N 20:46:56 61° E 20:47:39 52° ESE
Terra 1.9 20:47:56 46° SE 20:49:04 60° ENE 20:53:45 10° N
SPOT 5 2.5 20:50:48 54° SSE 20:51:46 89° W 20:56:09 10° NNW
ATLAS 3B R/B 3.6 20:45:57 10° NW 20:52:41 45° WSW 20:56:42 24° S
USA 267 3.4 20:48:36 10° ENE 20:54:53 48° SE 20:59:02 21° SSW
NOSS 2-1 (C) 3.9 21:00:50 37° NNE 21:00:50 37° NNE 21:02:58 10° NE
Cosmos 2056 Rocket 3.7 20:55:40 10° NNW 21:00:59 62° ENE 21:02:09 49° ESE
ERS-1 Rocket 3.0 21:00:35 44° S 21:02:08 73° WSW 21:07:10 10° NNW
SL-27 R/B 3.3 21:06:23 43° NE 21:06:23 43° NE 21:08:56 10° NNE
Meteor 2-21 4.4 21:02:37 34° S 21:05:30 89° E 21:11:42 10° N
NOSS 2-1 (D) 3.8 21:08:18 42° NNE 21:08:18 42° NNE 21:10:40 10° NNE
Cosmos 2360 Rocket 2.4 21:03:15 10° NNW 21:08:49 60° ENE 21:10:08 47° ESE
Cosmos 1833 4.1 21:14:09 51° S 21:15:33 71° ESE 21:21:19 10° NNE
ISS -1.6 21:14:19 10° WNW 21:15:56 21° W 21:15:56 21° W
Cosmos 2333 Rocket 3.1 21:14:07 10° N 21:19:20 36° ENE 21:20:38 32° E
Meteor 1-10 Rocket 4.1 21:16:20 10° N 21:21:55 79° E 21:22:51 62° SSE
Cosmos 1500 Rocket 4.0 21:22:34 49° ENE 21:22:34 49° ENE 21:26:16 10° NNE
Cosmos 1371 Rocket 4.0 21:17:05 10° NNW 21:22:29 78° WSW 21:23:22 61° S
Cosmos 1812 3.2 21:19:29 10° NNW 21:23:03 54° W 21:23:03 54° W
Cosmos 220 Rocket 4.3 21:21:31 10° NNW 21:25:47 58° WSW 21:25:50 57° WSW
USA 234 4.4 21:22:43 13° E 21:27:54 37° NNE 21:33:49 10° NW
Cosmos 2322 4.4 21:24:17 10° NNW 21:29:43 42° ENE 21:30:49 38° E
Cosmos 292 Rocket 3.7 21:28:55 10° NNW 21:33:40 72° ENE 21:33:40 72° ENE
Meteor 2-16 Rocket 4.4 21:35:24 51° SSW 21:37:02 82° W 21:43:10 10° N
Cosmos 2237 Rocket 4.4 21:36:18 10° N 21:39:34 15° NE 21:42:14 12° ENE
Cosmos 1408 Rocket 4.2 21:40:12 47° W 21:40:32 48° W 21:44:46 10° N
Cosmos 2322 Rocket 2.8 21:35:34 10° NW 21:40:53 44° WSW 21:41:46 41° SW
Cosmos 1743 Rocket 3.7 21:42:22 70° NNE 21:42:22 70° NNE 21:46:19 10° N
Cosmos 2285 Rocket 4.3 21:40:28 10° N 21:46:36 51° ENE 21:47:42 46° E
IRIDIUM 106 4.3 21:43:08 10° N 21:48:18 70° E 21:48:18 70° E
Sich 1 4.2 21:51:50 35° NE 21:51:50 35° NE 21:54:41 10° NNE
Cosmos 2315 Rocket 3.9 21:45:04 10° N 21:51:25 73° E 21:52:17 64° SE
Cosmos 2266 Rocket 4.1 21:53:29 51° SW 21:54:58 69° W 22:01:11 10° N
Cosmos 1048 Rocket 4.3 21:59:26 55° ENE 21:59:26 55° ENE 22:03:39 10° NNE
Cosmos 2219 Rocket 2.2 21:57:11 10° NNW 22:02:45 64° ENE 22:02:58 64° ENE
BREEZE-M DEB (TANK) 4.4 21:49:42 10° WSW 22:05:59 75° SSE 22:10:37 10° ENE
Cosmos 2228 Rocket 3.6 22:02:32 10° N 22:06:04 57° NNW 22:06:04 57° NNW
SL-16 R/B 4.0 22:05:05 10° NW 22:09:00 20° W 22:09:55 19° WSW
COSMOS 2455 2.8 22:09:10 64° SW 22:10:07 79° WNW 22:16:10 10° NNE
NOSS 3-1 (C) 4.0 22:04:31 10° NW 22:12:13 90° ENE 22:14:29 55° SE
Cosmos 2333 4.1 22:06:42 10° NNW 22:12:13 75° WSW 22:12:13 75° WSW
COSMOS 2428 2.7 22:11:48 10° NNW 22:17:30 69° ENE 22:17:35 69° ENE
Spot 4 4.1 22:21:45 65° NNW 22:21:45 65° NNW 22:25:54 10° NNW
USA 229 DEB 4.0 22:18:59 10° NNW 22:26:22 73° NE 22:28:16 53° ESE
USA 229 4.0 22:19:06 10° NNW 22:26:29 72° NE 22:28:23 53° ESE
Terra 4.1 22:26:49 14° W 22:27:11 14° W 22:29:48 10° WNW
ATLAS 5 CENTAUR R/B 2.8 22:24:08 10° NNW 22:29:39 54° NE 22:30:39 49° E
ALOS 2 3.5 22:33:57 47° N 22:33:57 47° N 22:37:10 10° N
Cosmos 1452 Rocket 3.9 22:28:17 10° NNW 22:32:49 56° WNW 22:32:49 56° WNW
USA 267 3.8 22:31:35 10° NE 22:37:56 55° NNW 22:44:16 10° WSW
Nadezhda 1 Rocket 4.4 22:37:46 10° N 22:44:01 53° ENE 22:44:26 52° E
SL-08 ROCKET BODY 4.3 22:44:14 88° E 22:44:14 88° E 22:50:24 10° N
NOSS 3-1 (A) 4.0 22:39:12 10° NW 22:46:56 89° SW 22:48:49 60° SSE
Cosmos 2360 Rocket 4.0 22:48:25 10° NW 22:51:53 19° W 22:51:53 19° W
Cosmos 1110 Rocket 4.4 22:54:15 10° NNW 22:58:40 58° NW 22:58:40 58° NW
Cosmos 1980 4.0 22:55:46 10° NNW 23:01:19 60° ENE 23:01:19 60° ENE
Cosmos 2333 Rocket 3.4 22:58:30 10° NW 23:02:38 32° W 23:02:38 32° W
Cosmos 1331 Rocket 4.5 22:59:46 10° NNW 23:03:58 55° NW 23:03:58 55° NW
USA 234 3.1 23:10:02 77° SSE 23:10:31 84° SW 23:17:07 10° NW
Nimbus 7 Rocket 4.4 23:07:55 10° N 23:13:56 75° WNW 23:14:02 74° W
NOSS 0 Rocket 3.9 23:10:06 10° NNW 23:16:01 73° W 23:16:01 73° W
Cosmos 2297 Rocket 2.3 23:17:11 68° NE 23:17:11 68° NE 23:22:11 10° NNE
Okean 1-7 4.5 23:16:10 10° N 23:18:54 33° NNE 23:18:54 33° NNE
Lacrosse 5 2.6 23:21:59 47° NE 23:21:59 47° NE 23:25:36 10° NE
Cosmos 2237 Rocket 2.2 23:18:47 10° NNW 23:24:02 76° N 23:24:02 76° N
Cosmos 2227 Rocket 2.4 23:28:53 65° ENE 23:28:53 65° ENE 23:33:50 10° NNE
Cosmos 909 Rocket 4.1 23:31:44 72° SE 23:31:55 73° ESE 23:39:20 10° NE
Timation 1 Rocket 4.4 23:41:04 71° E 23:41:04 71° E 23:46:42 10° NNE
Meteor 1-11 Rocket 3.8 23:41:19 66° ENE 23:41:19 66° ENE 23:46:22 10° NNE
Cosmos 2219 Rocket 4.2 23:42:31 10° WNW 23:44:40 16° W 23:44:40 16° W
Cosmos 2263 Rocket 4.1 23:46:35 18° E 23:46:35 18° E 23:50:13 10° ENE
NOSS 2-2 (C) 4.5 23:45:57 10° NW 23:51:34 87° NE 23:52:23 71° SE
SL-16 R/B 2.8 23:46:19 10° NNW 23:51:50 51° ENE 23:52:42 46° E
Cosmos 1992 Rocket 4.3 23:47:12 10° NNW 23:52:06 64° NE 23:52:06 64° NE
Resurs 1-4 Rocket 3.5 23:50:46 10° NE 23:55:13 27° E 23:55:13 27° E
